[[{"header":{"parameterUnit":"m.s-1","parameterCategory":1,"la1":30.2991,"la2":30.254,"lo1":-89.0895,"lo2":-89.0444,"dy":0.0017,"dx":0.0017,"nx":28,"ny":28,"refTime":"2025-03-06T09:00:00:Z","depth":0,"parameterNumber":2,"parameterNumberName":"U-component_of_WINDS"},"data":[0,0,0,0,0,0,0,0,0,0,0,0,0,0,0,0,0,0,0,0,0,0,0,0,0,0,0,0,0,0,0,0,0,0,0,0,0,0,0,0,0,0,0,0,0,0,0,0,0,0,0,0,0,0,0,0,0,0,-0.0164,-0.0164,0,-0.0173,-0.0173,-0.0174,-0.019,-0.0191,-0.0191,-0.0191,-0.0201,-0.0201,-0.0201,0,0,0,0,0,0,0,0,0,0,0,0,0,-0.016,-0.016,-0.0164,-0.0164,-0.0164,-0.0173,-0.0173,-0.0174,-0.019,-0.0191,-0.0191,-0.0191,-0.0201,-0.0201,-0.0201,0,0,0,0,0,0,0,0,0,0,0,0,0,-0.0165,-0.016,-0.0164,-0.0174,-0.0175,-0.0173,-0.0173,-0.0174,-0.019,-0.0191,-0.0191,-0.0191,-0.0201,-0.0201,-0.0201,-0.0191,0,0,-0.02,-0.02,0,0,0,0,0,0,0,0,-0.0165,-0.0165,-0.0172,-0.0173,-0.0174,-0.0181,-0.0176,-0.0179,-0.019,-0.0184,-0.0191,-0.0192,-0.0194,-0.0194,-0.0195,-0.0191,-0.0191,-0.02,-0.02,-0.02,-0.02,0,0,0,0,0,0,0,-0.0164,-0.0165,-0.0168,-0.0172,-0.0173,-0.0177,-0.0179,-0.0176,-0.0186,-0.0185,-0.0186,-0.0187,-0.0194,-0.0195,-0.0195,-0.0192,-0.02,-0.02,-0.02,-0.02,-0.018,-0.0179,0,0,0,0,0,0,-0.0163,-0.0165,-0.0167,-0.0168,-0.0171,-0.0177,-0.0178,-0.0178,-0.0186,-0.0188,-0.0186,-0.0188,-0.0195,-0.0195,-0.0196,-0.0184,-0.02,-0.02,-0.02,-0.018,-0.0179,-0.0179,0,0,0,0,0,0,-0.0163,-0.0163,-0.0167,-0.0167,-0.0167,-0.0177,-0.0176,-0.0178,-0.0179,-0.0188,-0.0189,-0.0185,-0.0195,-0.0196,-0.0192,-0.0185,-0.02,-0.02,-0.0181,-0.018,-0.0179,-0.0161,0,0,0,0,0,0,-0.0162,-0.0163,-0.0159,-0.0166,-0.0167,-0.0163,-0.0176,-0.0178,-0.0179,-0.018,-0.0187,-0.0188,-0.0196,-0.0192,-0.0192,-0.0185,-0.02,-0.0181,-0.018,-0.0179,-0.0163,-0.016,-0.0158,0,0,0,0,0,-0.0162,-0.0154,-0.0159,-0.0159,-0.0163,-0.0162,-0.0163,-0.0171,-0.0178,-0.0175,-0.018,-0.0188,-0.0186,-0.0191,-0.0191,-0.0184,-0.0182,-0.0181,-0.0179,-0.0164,-0.0161,-0.0158,0,0,0,0,0,0,-0.0146,-0.0155,-0.0161,-0.0154,-0.0157,-0.0165,-0.0161,-0.0168,-0.0169,-0.0171,-0.0181,-0.0183,-0.0177,-0.018,-0.0186,-0.0175,-0.0185,-0.0184,-0.0173,-0.017,-0.0168,-0.0167,-0.02,0,0,0,0,0,-0.0141,-0.014,-0.0148,-0.0142,-0.0143,-0.0152,-0.0152,-0.0158,-0.0162,-0.0163,-0.0168,-0.0171,-0.0171,-0.0171,-0.0171,-0.0163,-0.0165,-0.0159,-0.0156,-0.0154,-0.0153,-0.0149,-0.0146,-0.0175,-0.0175,-0.0175,0,0,-0.0132,-0.0137,-0.0136,-0.0139,-0.0142,-0.014,-0.0153,-0.0151,-0.0149,-0.0163,-0.0159,-0.0163,-0.0167,-0.0161,-0.0158,-0.0163,-0.0145,-0.0153,-0.0151,-0.0151,-0.0147,-0.0144,-0.0142,-0.0174,-0.0174,-0.0175,0,0,-0.0115,-0.0119,-0.0113,-0.0116,-0.0121,-0.0126,-0.0125,-0.0132,-0.0135,-0.0131,-0.0141,-0.014,-0.0139,-0.0142,-0.0143,-0.0126,-0.0133,-0.0126,-0.0113,-0.0109,-0.0107,-0.0105,-0.0098,-0.0096,-0.0125,-0.0125,-0.0125,0,-0.0103,-0.0101,-0.011,-0.0107,-0.0108,-0.012,-0.0114,-0.0117,-0.0121,-0.0121,-0.0127,-0.0127,-0.013,-0.0124,-0.012,-0.0121,-0.012,-0.0125,-0.0106,-0.0104,-0.0103,-0.0096,-0.0094,-0.0124,-0.0124,-0.0124,-0.0124,0,-0.0086,-0.0084,-0.0079,-0.0083,-0.0083,-0.0079,-0.0088,-0.0087,-0.0093,-0.0098,-0.0094,-0.0099,-0.01,-0.0099,-0.0105,-0.0094,-0.0097,-0.0104,-0.0114,-0.0099,-0.0093,-0.0091,-0.0122,-0.0122,-0.0123,-0.0123,0,0,-0.0058,-0.0067,-0.0065,-0.0066,-0.0072,-0.0071,-0.0067,-0.0068,-0.0067,-0.007,-0.0067,-0.0066,-0.0072,-0.0074,-0.008,-0.0076,-0.0062,-0.0084,-0.0084,-0.0079,-0.0049,-0.0043,-0.004,-0.0067,-0.0066,-0.0066,-0.0049,0,-0.0042,-0.0036,-0.0044,-0.0036,-0.0034,-0.0045,-0.0042,-0.0045,-0.0049,-0.0048,-0.0054,-0.0053,-0.0062,-0.0062,-0.0059,-0.0064,-0.0056,-0.0066,-0.0064,-0.0064,-0.0062,-0.0038,-0.0032,-0.0015,-0.0047,-0.0046,-0.0046,0,-0.0022,-0.0023,-0.0015,-0.002,-0.002,-0.0017,-0.0018,-0.0017,-0.0021,-0.0024,-0.0026,-0.0033,-0.003,-0.004,-0.0035,-0.0041,-0.0041,-0.0043,-0.0043,-0.0043,-0.0053,-0.0036,-0.001,-0.0007,-0.0043,-0.0043,-0.0043,0,-0.0002,-0.0002,0.0003,0.0002,-0.0004,-0.0002,-0.0004,-0.0008,-0.0008,-0.0009,-0.0009,-0.001,-0.0011,-0.0011,-0.0018,-0.0025,-0.0012,-0.0023,-0.0015,-0.0015,-0.0012,-0.0012,0.0016,-0.0012,-0.0012,-0.0012,-0.0012,0,0.0017,0.0023,0.0012,0.0015,0.0021,0.0012,0.0018,0.0015,0.0011,0.0014,0.0004,0.0006,-0.0004,-0.0002,-0.0008,-0.0003,-0.0003,-0.0006,-0.0007,-0.0004,-0.0004,-0.0004,-0.0005,-0.0011,-0.0012,-0.0012,-0.0012,0,0.004,0.0034,0.0038,0.0032,0.0031,0.0035,0.003,0.0033,0.0028,0.0031,0.0031,0.0023,0.0024,0.0017,0.0017,0.0013,0.0021,0.0017,0.0022,0.0021,0.003,0.003,0.0059,0.0063,0.0032,0.0032,0.0033,0,0.0053,0.0058,0.0052,0.0053,0.0051,0.0052,0.0052,0.0044,0.0044,0.0041,0.0044,0.0045,0.0045,0.0047,0.0042,0.0042,0.0038,0.0048,0.0038,0.0041,0.0039,0.0039,0.0039,0.0051,0.0051,0.0051,0.0051,0,0.0077,0.0074,0.0074,0.0074,0.0074,0.0074,0.0072,0.0073,0.0064,0.0065,0.0067,0.0067,0.0067,0.0067,0.0066,0.0064,0.0056,0.0055,0.0057,0.006,0.0063,0.0062,0.0029,0.0054,0.0054,0.0054,0.0054,0.0053,0.0096,0.0099,0.0096,0.0097,0.0095,0.0094,0.0097,0.0092,0.0093,0.0093,0.0087,0.009,0.0087,0.0085,0.0083,0.0085,0.008,0.0082,0.0083,0.0084,0.0086,0.0062,0.0084,0.0084,0.0084,0.0084,0.0084,0,0.012,0.0117,0.0118,0.0117,0.0118,0.0111,0.0109,0.011,0.0113,0.011,0.0111,0.0112,0.0113,0.0108,0.0108,0.0111,0.0107,0.0111,0.0111,0.011,0.009,0.0089,0.0114,0.0114,0.0114,0.0114,0.0114,0.0114,0.0132,0.0138,0.0134,0.0138,0.0136,0.0138,0.0138,0.0137,0.0135,0.0138,0.0139,0.0135,0.0132,0.0132,0.0132,0.0131,0.0131,0.0136,0.0134,0.0115,0.0112,0.0109,0.0108,0.0137,0.0137,0.0154,0.0154,0.0154]},{"header":{"parameterUnit":"m.s-1","parameterCategory":1,"la1":30.2991,"la2":30.254,"lo1":-89.0895,"lo2":-89.0444,"dy":0.0017,"dx":0.0017,"nx":28,"ny":28,"refTime":"2025-03-06T09:00:00:Z","depth":0,"parameterNumber":3,"parameterNumberName":"V-component_of_WINDS"},"data":[0,0,0,0,0,0,0,0,0,0,0,0,0,0,0,0,0,0,0,0,0,0,0,0,0,0,0,0,0,0,0,0,0,0,0,0,0,0,0,0,0,0,0,0,0,0,0,0,0,0,0,0,0,0,0,0,0,0,4.6327,4.6329,0,4.6551,4.6554,4.6557,4.6613,4.6611,4.661,4.6608,4.6837,4.6845,4.6852,0,0,0,0,0,0,0,0,0,0,0,0,0,4.5945,4.5952,4.6326,4.6329,4.6332,4.6551,4.6554,4.6557,4.6613,4.6611,4.6609,4.6608,4.6835,4.6844,4.6853,0,0,0,0,0,0,0,0,0,0,0,0,0,4.6134,4.5954,4.6326,4.6386,4.6394,4.655,4.6554,4.6558,4.6613,4.6611,4.6609,4.6607,4.6832,4.6843,4.6854,4.6966,0,0,4.6888,4.6893,0,0,0,0,0,0,0,0,4.6123,4.6148,4.6375,4.6382,4.6391,4.6552,4.6504,4.6695,4.6614,4.653,4.6608,4.6606,4.6744,4.6762,4.6809,4.6977,4.6987,4.6889,4.6896,4.6901,4.6904,0,0,0,0,0,0,0,4.611,4.6139,4.6415,4.6378,4.6388,4.6402,4.6426,4.654,4.6646,4.6537,4.6542,4.6568,4.6748,4.6798,4.6815,4.699,4.6889,4.6899,4.6905,4.691,4.7264,4.7266,0,0,0,0,0,0,4.6087,4.6127,4.6408,4.6422,4.6249,4.6411,4.6438,4.6502,4.6645,4.6665,4.6569,4.6569,4.678,4.6802,4.6823,4.6967,4.69,4.6911,4.6917,4.7261,4.7264,4.7267,0,0,0,0,0,0,4.6078,4.6111,4.6399,4.6276,4.6314,4.6419,4.6491,4.6508,4.6558,4.667,4.6689,4.6601,4.6779,4.6807,4.6931,4.6975,4.6916,4.6926,4.7258,4.7262,4.7266,4.7252,0,0,0,0,0,0,4.6067,4.6108,4.6152,4.6277,4.632,4.6503,4.6494,4.6514,4.6577,4.658,4.6704,4.6723,4.678,4.6914,4.6942,4.6989,4.6935,4.7254,4.726,4.7264,4.7249,4.7255,4.726,0,0,0,0,0,4.6053,4.6138,4.6153,4.6187,4.6377,4.6505,4.653,4.6594,4.6581,4.6626,4.6698,4.6719,4.6965,4.6926,4.6958,4.7009,4.7252,4.7258,4.7264,4.7246,4.7254,4.726,0,0,0,0,0,0,4.6014,4.6155,4.6174,4.6302,4.6391,4.6515,4.6573,4.66,4.6695,4.6693,4.6768,4.6796,4.6915,4.6974,4.6928,4.7127,4.7108,4.7121,4.7084,4.7092,4.7097,4.7082,4.6944,0,0,0,0,0,4.602,4.6113,4.6231,4.6332,4.6376,4.6467,4.6525,4.6567,4.6663,4.6701,4.6781,4.6873,4.6972,4.7035,4.7131,4.7257,4.7286,4.7308,4.7314,4.7318,4.7329,4.7402,4.7414,4.7287,4.7287,4.7287,0,0,4.6034,4.6123,4.6176,4.6327,4.6401,4.6496,4.6498,4.6598,4.6669,4.6716,4.6838,4.69,4.7008,4.7133,4.7193,4.7187,4.737,4.7326,4.7328,4.7337,4.741,4.7422,4.7432,4.7291,4.729,4.729,0,0,4.6108,4.6184,4.6278,4.6353,4.6465,4.6525,4.6548,4.6668,4.6712,4.6835,4.6873,4.6958,4.7125,4.7201,4.7262,4.7366,4.739,4.7395,4.7425,4.7496,4.7506,4.7515,4.7555,4.7568,4.7405,4.7405,4.7405,0,4.6111,4.6256,4.6322,4.6422,4.6487,4.6534,4.663,4.6699,4.6837,4.6882,4.6873,4.7085,4.716,4.7306,4.7332,4.7378,4.7407,4.7382,4.7499,4.7509,4.7519,4.7558,4.7572,4.7405,4.7405,4.7405,4.7405,0,4.6255,4.6355,4.6417,4.6551,4.6624,4.672,4.6802,4.6867,4.6902,4.6963,4.709,4.7182,4.7299,4.7336,4.7371,4.7488,4.7481,4.7484,4.7468,4.753,4.7568,4.7583,4.7405,4.7405,4.7405,4.7405,0,0,4.6312,4.6482,4.6504,4.6567,4.6695,4.6774,4.6872,4.6988,4.7044,4.7137,4.7224,4.7364,4.7369,4.7438,4.7482,4.7543,4.7624,4.754,4.7544,4.7555,4.776,4.7759,4.7775,4.7639,4.7642,4.7645,4.7752,0,4.6404,4.6584,4.6648,4.6796,4.689,4.6937,4.7023,4.7112,4.7171,4.726,4.7325,4.7425,4.7423,4.7465,4.7528,4.76,4.7666,4.7593,4.7722,4.7726,4.7696,4.7794,4.7792,4.789,4.7767,4.777,4.7772,0,4.6536,4.6633,4.6792,4.6911,4.6952,4.7029,4.7141,4.7225,4.7326,4.7365,4.7442,4.7482,4.7589,4.7564,4.7713,4.7662,4.7718,4.7761,4.7767,4.7783,4.7754,4.7816,4.7922,4.7937,4.7795,4.7793,4.7791,0,4.6565,4.6735,4.6852,4.6904,4.7045,4.7098,4.7159,4.7258,4.7324,4.7422,4.7466,4.7573,4.7633,4.7716,4.7784,4.7759,4.7928,4.7908,4.7965,4.7963,4.8,4.7997,4.8119,4.8031,4.8031,4.8031,4.803,0,4.6663,4.6758,4.6868,4.694,4.7049,4.7121,4.7227,4.729,4.7379,4.7465,4.751,4.759,4.7674,4.7765,4.7819,4.7935,4.7961,4.7997,4.801,4.7994,4.799,4.8034,4.803,4.8035,4.8034,4.8033,4.8032,0,4.6714,4.6791,4.6923,4.7045,4.7079,4.7154,4.7259,4.7332,4.7393,4.7502,4.7531,4.7628,4.7738,4.7814,4.7954,4.799,4.8117,4.8128,4.8083,4.809,4.8144,4.8139,4.83,4.8326,4.8218,4.8219,4.822,0,4.6772,4.6848,4.6979,4.7041,4.7102,4.72,4.7268,4.7341,4.741,4.7533,4.7591,4.7704,4.7798,4.7971,4.8054,4.8162,4.8178,4.8227,4.8195,4.8177,4.8183,4.8178,4.8188,4.8233,4.8234,4.8235,4.8235,0,4.6869,4.6904,4.7001,4.7112,4.7192,4.7282,4.7373,4.742,4.751,4.7585,4.7698,4.7772,4.7916,4.8028,4.8145,4.8208,4.8237,4.8244,4.8264,4.825,4.8222,4.8241,4.81,4.8241,4.824,4.824,4.824,4.8239,4.6928,4.6998,4.7103,4.7209,4.7286,4.737,4.7445,4.7516,4.7612,4.7736,4.7773,4.7892,4.7993,4.8152,4.8217,4.8311,4.8307,4.8334,4.8342,4.8348,4.835,4.8204,4.8332,4.8332,4.8332,4.8332,4.8332,0,4.703,4.71,4.7197,4.7324,4.7408,4.7428,4.753,4.7599,4.7703,4.7795,4.7888,4.8019,4.8129,4.822,4.8334,4.8391,4.8408,4.8419,4.8417,4.8431,4.8345,4.8318,4.8404,4.8404,4.8404,4.8404,4.8404,4.8404,4.7093,4.7214,4.7261,4.742,4.7489,4.7606,4.7663,4.7741,4.7815,4.796,4.8052,4.8111,4.8204,4.8324,4.8426,4.845,4.8491,4.8499,4.8527,4.8445,4.8437,4.8429,4.8405,4.8507,4.8507,4.8606,4.8607,4.8608]}]]